Theta_e
312 313 313 312 311 311 310 310 310 309 308 305 305 305 304 305 307 310 310 312 316 308 309 314 316 316 315 311 308 306 308 310 314 315 315 310 310 312 313 312 311 312 314 313 334
311 313 312 311 311 310 310 309 310 310 308 305 305 304 305 307 310 311 311 313 314 308 310 314 314 314 309 307 303 306 306 309 309 311 311 308 308 309 311 311 310 311 311 313 325
310 313 312 310 310 310 311 310 310 310 306 304 305 305 306 309 311 312 314 311 308 309 314 315 313 311 310 307 306 305 307 307 307 308 309 309 308 309 310 310 309 310 310 310 322
309 312 312 310 309 309 308 307 306 306 306 307 307 307 307 312 310 313 311 308 309 311 315 312 309 309 308 310 308 311 309 310 310 310 309 309 308 309 308 309 309 309 310 310 311
308 310 310 308 306 306 305 304 305 306 308 309 307 307 308 305 305 309 310 309 309 314 315 311 310 309 310 310 309 309 310 310 310 308 307 307 308 309 309 308 308 308 309 309 309
307 309 309 306 305 305 305 305 306 307 309 310 308 309 310 309 310 312 310 310 311 314 313 311 310 310 310 311 310 310 310 310 309 309 307 309 309 309 309 309 308 308 308 307 308
306 307 307 305 306 306 306 307 307 307 310 312 309 314 310 310 313 313 312 312 312 313 312 312 311 311 310 310 310 311 312 309 309 310 310 308 311 310 309 308 308 308 307 307 307
306 306 306 305 307 307 308 309 309 308 311 313 314 315 313 313 315 314 312 313 313 313 314 313 311 310 311 310 310 311 309 311 310 309 312 311 312 310 312 310 311 309 308 308 308
306 306 306 305 307 309 310 311 311 311 312 315 315 314 313 316 315 314 314 313 313 312 312 312 310 309 311 311 310 308 311 312 311 310 314 313 315 314 314 312 309 308 307 308 308
306 307 306 305 307 309 311 311 312 313 315 313 314 308 310 311 312 312 312 313 312 309 310 308 305 307 306 309 311 310 310 310 311 311 314 315 315 314 313 312 311 308 307 307 308
308 307 306 306 308 310 310 310 305 303 313 308 307 310 309 311 311 311 312 311 310 310 309 307 308 308 308 308 310 310 310 311 311 312 314 314 316 315 314 312 309 309 308 307 307
309 308 306 306 310 312 310 307 309 309 308 307 311 311 312 312 310 310 310 309 309 309 308 308 308 308 308 308 309 309 311 311 311 312 313 315 316 315 314 313 312 312 311 308 308
310 309 307 308 310 309 310 310 310 309 306 309 310 311 310 311 310 310 309 309 308 308 308 308 308 309 309 310 312 312 312 313 314 314 313 315 316 314 313 311 311 310 309 308 308
311 310 308 310 309 309 308 310 310 310 307 310 309 310 309 305 310 312 311 309 309 309 308 307 308 310 311 313 313 315 313 313 314 315 317 314 319 314 313 313 311 312 311 310 309
312 311 308 309 309 308 310 310 310 311 310 310 309 308 307 310 311 312 311 310 311 310 311 312 313 312 313 313 313 314 315 316 316 315 314 316 316 314 313 313 311 311 310 310 309
312 312 309 310 309 310 311 311 312 312 313 309 308 308 308 309 308 311 311 309 311 313 312 311 312 312 312 314 315 315 315 313 312 312 320 317 316 316 313 312 311 310 309 309 309
313 312 313 313 309 312 311 310 313 310 308 309 308 308 308 310 309 312 311 309 314 317 313 314 314 314 313 314 312 311 312 309 312 319 320 312 316 317 313 311 310 310 308 308 309
313 313 313 310 310 313 309 305 312 309 309 308 308 308 309 309 309 312 310 309 314 316 316 315 313 314 313 312 313 312 312 311 316 318 314 315 317 313 311 312 311 310 309 310 311
313 313 310 309 310 311 303 306 307 310 310 311 309 309 309 310 309 309 309 310 314 315 314 314 314 313 312 311 311 313 317 313 311 313 319 315 313 313 313 314 313 313 315 314 313
309 309 311 309 310 308 304 308 309 309 310 311 310 309 310 309 309 308 309 311 316 314 312 313 316 313 313 312 311 313 313 311 321 322 320 315 316 317 314 316 317 315 313 312 312
308 307 311 308 308 303 306 307 308 310 311 311 310 309 309 309 308 308 310 311 313 315 311 312 315 314 312 313 312 312 314 317 318 318 320 319 315 311 313 313 316 314 313 312 312
303 309 310 307 303 301 306 308 310 312 310 308 306 308 307 306 308 308 310 312 313 313 314 312 315 316 313 311 311 311 312 315 318 319 320 316 316 312 314 315 315 314 314 312 312
302 303 309 307 304 303 305 309 310 312 310 306 307 306 306 308 307 309 311 311 310 312 312 313 315 314 311 310 313 314 314 314 315 316 319 319 315 315 314 314 313 311 311 312 313
302 306 304 300 301 305 307 308 310 310 308 306 306 307 308 309 308 309 311 309 312 312 313 313 313 315 317 314 315 317 317 316 316 318 317 318 316 314 313 313 312 314 315 316 315
301 304 304 305 305 306 306 308 310 309 308 306 306 307 306 308 308 309 308 309 308 309 313 315 316 315 315 315 316 316 316 316 315 316 318 318 318 317 317 317 315 312 313 314 315
305 305 302 304 304 307 307 307 308 309 308 307 305 306 305 307 308 310 309 309 307 312 315 311 316 316 315 314 315 316 314 314 315 317 315 315 317 313 312 313 314 313 312 312 313
305 305 306 304 305 307 306 306 308 307 307 307 306 306 305 307 307 308 308 307 308 311 311 311 311 310 311 311 311 313 315 314 312 310 312 315 314 309 310 310 310 310 310 311 311
Wind_Speed
22 22 21 20 18 17 15 14 13 11 11 10 9 11 13 18 21 7 2 2 2 7 6 7 5 3 3 3 2 3 4 1 1 2 3 8 6 3 4 7 4 5 4 5 12
24 22 21 19 18 16 15 13 11 10 10 10 11 12 14 17 12 6 2 2 3 7 6 8 5 3 3 3 3 4 4 7 5 2 2 6 3 7 2 5 4 6 7 12 8
27 25 23 20 18 16 14 12 10 10 9 11 11 12 13 10 3 5 4 5 4 6 6 5 4 2 4 4 4 1 4 3 1 3 1 4 6 2 3 1 6 7 7 10 2
29 26 24 21 18 15 12 10 9 8 10 11 13 11 8 3 4 4 2 3 4 7 7 6 5 4 4 3 3 1 1 3 6 2 4 4 5 7 6 6 7 9 6 5 7
32 27 25 21 17 14 11 9 8 9 11 12 12 9 3 2 2 2 1 3 5 5 3 2 4 3 2 1 2 2 1 4 7 9 6 6 7 7 5 11 9 9 8 9 8
36 29 26 20 16 13 10 8 8 9 10 12 11 8 2 5 4 2 5 5 4 4 3 1 2 1 3 2 1 3 3 7 6 8 4 3 5 2 6 7 8 8 11 8 8
36 30 26 18 13 11 10 9 8 8 9 11 9 7 2 1 2 2 4 6 5 4 3 3 4 4 1 6 1 3 5 7 3 1 5 2 4 5 8 5 10 9 9 8 9
39 32 24 16 10 10 10 10 9 7 5 8 7 5 1 2 5 8 9 12 13 13 12 13 7 3 3 2 6 5 3 3 5 5 3 4 8 9 12 5 10 9 8 6 6
42 35 23 13 8 10 12 13 7 3 1 5 4 4 3 4 6 6 11 9 6 9 10 8 3 0 3 3 4 5 5 5 6 5 3 3 8 11 15 9 9 10 8 5 7
46 37 22 10 7 9 11 7 7 5 2 3 2 3 1 3 5 8 9 13 4 6 2 4 4 2 3 4 5 7 5 6 10 6 4 7 15 13 12 7 12 9 8 6 8
48 38 19 8 8 7 10 2 5 4 2 2 7 4 5 8 12 4 5 4 3 0 4 2 3 6 12 8 7 6 6 11 12 12 5 13 17 13 14 10 11 10 8 7 9
51 35 16 11 5 5 10 5 0 2 5 2 4 5 10 5 5 4 2 5 4 8 4 3 7 13 8 6 6 7 7 8 9 12 6 11 18 15 13 10 15 15 12 8 5
52 30 16 7 4 6 5 4 11 3 2 6 3 3 4 4 3 7 1 1 5 4 7 9 10 1 5 5 6 5 6 8 15 15 6 8 20 9 9 8 11 13 10 8 10
52 27 12 3 2 6 1 8 10 6 4 6 3 2 6 5 3 2 7 0 3 4 4 6 5 5 4 5 5 10 9 12 12 8 6 4 12 5 8 15 11 14 10 10 9
51 26 7 6 3 1 6 17 1 3 3 5 3 2 8 5 4 4 6 7 4 8 1 8 3 7 7 8 3 6 6 7 12 11 5 6 4 5 2 5 10 9 12 12 6
50 18 6 5 5 6 16 8 3 5 2 4 4 5 6 4 7 4 3 5 4 3 2 5 5 4 5 3 2 3 5 10 3 2 7 11 10 4 5 7 6 6 8 7 4
48 11 6 8 7 16 14 3 5 4 5 4 5 4 2 4 6 3 4 7 1 5 4 7 5 3 3 5 6 8 5 4 5 0 5 5 7 14 13 9 9 10 9 6 2
43 10 12 17 16 13 4 5 4 1 5 4 6 4 4 3 4 3 6 5 3 3 2 2 8 3 1 2 5 7 6 4 5 3 4 3 7 5 9 11 8 7 7 5 4
36 7 16 25 11 5 5 5 4 1 4 6 8 2 3 2 3 5 4 3 4 5 2 4 6 5 13 15 8 3 4 3 2 4 6 4 6 8 11 9 6 6 1 3 5
22 9 11 23 6 6 5 2 2 3 5 3 2 1 3 4 3 6 3 4 3 8 3 4 12 5 3 2 7 6 5 2 2 4 5 5 5 6 7 4 4 6 7 7 4
8 4 15 19 4 6 3 4 4 5 3 3 3 5 5 4 4 3 6 6 4 2 5 1 5 7 5 5 5 2 3 3 3 3 3 5 5 6 7 7 5 6 8 8 8
7 3 17 16 4 2 1 3 6 4 4 4 3 2 3 4 4 5 6 6 3 2 3 3 4 7 9 15 7 5 4 5 3 3 4 4 10 7 5 5 4 8 9 11 7
2 3 10 9 3 3 5 4 3 4 4 3 4 3 3 3 6 4 4 3 7 5 4 4 4 4 8 3 3 3 4 8 6 5 13 7 8 1 5 7 8 7 8 13 15
3 4 4 4 1 4 3 4 4 5 3 3 4 0 4 4 6 8 12 8 3 6 21 10 5 9 10 11 4 7 9 10 8 4 7 11 22 20 19 20 19 12 9 11 15
3 1 2 4 3 2 3 3 3 3 4 5 4 1 5 5 6 6 4 11 10 12 1 2 5 7 16 18 19 24 23 18 16 15 11 12 17 16 15 14 12 13 14 14 15
2 3 3 3 4 4 2 3 2 2 3 5 5 7 5 6 8 21 13 10 8 4 2 1 3 3 8 18 16 20 19 16 15 9 11 13 19 9 14 14 15 14 13 15 16
3 2 2 3 2 2 3 4 4 4 7 10 7 11 10 11 9 17 18 17 13 4 2 2 2 3 5 7 14 8 5 2 2 10 12 9 5 11 18 20 19 18 17 18 18
Wind_Direction
353 350 347 345 344 343 342 341 340 338 336 342 349 351 343 335 335 354 277 114 39 5 358 7 64 81 72 62 55 121 61 110 242 130 261 302 9 283 273 271 324 262 280 296 344
353 350 348 346 346 344 343 343 340 339 337 348 354 348 341 336 335 325 37 105 33 5 19 23 6 23 47 45 27 83 106 212 213 245 304 306 291 287 263 287 266 287 298 326 18
355 351 350 349 349 347 345 342 341 339 342 353 352 343 340 337 328 346 56 77 35 6 13 353 350 43 60 31 5 115 174 195 294 276 35 264 306 304 269 300 251 270 293 315 14
357 352 350 349 350 350 352 355 356 355 353 354 354 348 347 0 98 347 55 37 9 354 13 10 22 44 60 37 318 102 2 81 298 285 323 286 293 304 231 249 248 278 268 286 323
4 354 351 352 0 8 13 16 13 2 359 359 359 357 52 41 290 309 214 310 334 344 38 47 49 105 40 284 329 117 289 293 272 287 243 254 242 240 245 264 286 278 295 285 293
8 357 352 357 8 16 15 7 359 355 358 4 3 4 44 74 330 248 236 294 319 3 348 25 93 22 86 322 113 244 272 283 281 277 261 255 270 186 254 254 276 273 273 278 273
7 359 352 356 11 17 13 359 344 346 351 2 8 16 36 152 352 338 243 281 301 311 330 334 24 46 77 321 323 294 324 331 294 292 292 210 307 226 250 278 271 264 252 269 260
8 360 352 353 8 11 2 354 333 333 344 359 12 17 242 287 294 270 251 266 270 274 270 294 330 226 174 246 2 356 69 5 274 311 270 66 274 278 294 313 291 282 253 257 264
7 3 355 352 359 5 353 350 359 343 32 6 17 38 285 280 293 315 248 244 280 278 267 275 47 157 25 77 358 356 258 281 302 227 269 187 267 284 294 296 285 287 283 272 293
5 4 3 360 354 0 354 16 35 70 62 36 19 25 275 304 305 308 292 240 278 324 8 81 55 51 32 77 269 277 282 270 278 284 212 262 263 275 277 280 277 271 280 255 264
5 4 10 11 347 17 16 34 16 1 64 176 267 243 277 302 294 252 248 153 216 40 243 5 48 257 254 217 240 274 283 269 275 277 283 276 280 280 280 283 276 276 257 247 240
3 2 10 357 44 49 44 74 256 229 322 265 246 265 274 264 318 331 185 168 147 231 111 10 234 249 246 254 225 245 254 267 268 267 236 272 273 278 274 254 258 265 264 241 201
1 1 9 13 83 43 67 101 351 165 92 303 209 259 295 155 296 347 2 304 213 215 203 215 245 198 203 261 252 245 240 272 275 291 257 280 281 240 248 237 242 249 241 232 215
0 360 11 52 62 354 50 348 337 159 66 313 356 338 359 325 28 354 7 236 335 280 266 227 273 233 240 240 241 291 269 282 278 293 280 125 296 234 240 251 252 257 258 241 224
358 354 13 22 344 341 325 335 139 108 22 312 353 315 335 53 277 325 22 7 313 273 288 252 275 267 267 247 231 241 303 275 273 262 286 217 257 278 274 244 252 257 247 252 227
356 351 5 5 321 334 334 342 116 45 276 324 325 332 27 327 330 310 353 20 255 326 317 250 267 225 228 294 84 314 346 313 5 155 254 222 200 301 230 234 265 257 267 254 210
354 356 0 351 326 327 341 56 33 98 355 303 290 320 330 262 306 286 306 328 293 354 324 322 305 272 57 3 351 7 34 327 328 241 240 327 213 252 291 272 247 259 272 278 165
354 16 32 6 336 333 9 53 68 245 262 295 291 288 271 357 262 300 293 306 241 169 305 318 325 340 221 187 223 278 172 177 265 251 269 318 251 249 245 281 279 259 268 316 350
352 22 16 352 352 354 67 56 201 225 299 308 308 258 293 291 269 356 277 264 228 170 207 289 258 262 279 290 156 198 195 224 261 242 272 235 289 300 266 307 271 244 295 342 328
345 332 6 358 27 48 70 245 246 232 311 293 291 260 284 280 327 348 296 233 238 204 162 279 291 255 359 335 217 180 169 36 212 275 259 273 260 240 285 270 344 352 312 291 254
353 25 358 360 33 48 100 249 291 293 4 275 260 268 275 292 249 254 261 289 217 237 145 273 222 282 18 213 211 153 223 171 219 220 262 295 254 217 250 254 236 301 297 296 308
354 7 353 359 50 50 59 310 295 286 345 302 330 308 277 305 267 254 237 220 108 166 211 235 282 272 241 263 235 175 217 165 223 223 233 236 263 256 241 255 262 287 289 291 280
8 276 354 13 66 347 315 295 267 316 299 347 304 6 2 302 338 239 263 276 302 211 209 172 241 298 315 17 72 195 205 207 234 235 245 261 260 244 312 292 267 266 300 309 308
13 354 331 40 53 108 344 287 300 310 268 338 276 307 12 291 229 276 283 307 4 252 283 265 236 221 257 256 265 265 251 247 237 243 273 247 278 284 292 290 295 303 311 300 299
30 301 179 313 336 343 196 257 275 321 316 325 303 32 347 292 285 257 250 292 294 289 3 212 253 229 252 264 269 266 270 270 264 261 262 284 274 285 305 309 290 299 305 306 301
42 22 7 282 310 310 264 249 238 333 269 277 237 296 309 244 233 292 295 293 251 313 272 23 272 294 276 263 268 276 274 264 260 277 286 284 284 353 313 301 290 288 287 287 284
10 35 107 269 302 344 254 268 283 16 272 240 282 314 292 257 262 277 275 273 247 236 272 305 298 279 265 321 307 289 312 135 290 282 281 278 304 303 308 305 302 295 290 281 280